DW3153 Weather Reports


time (UTC)temp
F
wind
direction
speed
knots
gust
knots
rain 1hr
in
rain 24hr
in
rain mn
in
humidity
%
barometer
mb
20260506123655 53 161 0.0 0.0 0.00 0.00 0.00 93 1020.2
20260506122700 53 161 0.0 0.0 0.00 0.00 0.00 93 1020.2
20260506121720 53 161 0.0 0.0 0.00 0.00 0.00 93 1020.1
20260506120713 53 161 0.0 0.0 0.00 0.00 0.00 93 1020.1
20260506114551 53 161 0.0 0.0 0.00 0.00 0.00 93 1020.0
20260506113536 53 161 0.0 0.0 0.00 0.00 0.00 93 1019.9
20260506112528 53 161 0.0 0.0 0.00 0.00 0.00 93 1019.9
20260506111527 53 161 0.0 0.0 0.00 0.00 0.00 93 1019.8
20260506105404 53 161 0.0 0.0 0.00 0.00 0.00 93 1019.6
20260506104335 53 161 0.0 0.0 0.00 0.00 0.00 93 1019.6
20260506102215 52 161 0.0 0.0 0.00 0.00 0.00 93 1019.5
20260506101233 52 161 0.0 0.0 0.00 0.00 0.00 93 1019.4
20260506100201 52 161 0.0 0.0 0.00 0.00 0.00 93 1019.3
20260506095138 52 161 0.0 0.0 0.00 0.00 0.00 93 1019.4
20260506093026 52 161 0.0 0.0 0.00 0.00 0.00 93 1019.6
20260506090925 51 161 0.0 0.0 0.00 0.00 0.00 93 1019.4
20260506085936 51 161 0.0 0.0 0.00 0.00 0.00 93 1019.3
20260506084946 51 161 0.0 0.0 0.00 0.00 0.00 93 1019.4
20260506083951 51 161 0.0 0.0 0.00 0.00 0.00 93 1019.5
20260506082943 51 161 0.0 0.0 0.00 0.00 0.00 93 1019.5
20260506081932 50 161 0.0 0.0 0.00 0.02 0.00 92 1019.6
20260506072853 49 161 0.0 0.0 0.00 0.08 0.00 92 1019.1
20260506071836 49 161 0.0 0.0 0.00 0.09 0.00 92 1019.2
20260506070854 49 161 0.0 0.0 0.00 0.09 0.00 92 1019.1
20260506061848 49 161 0.0 0.0 0.00 0.09 0.09 91 1018.8
20260506060834 49 161 0.0 0.0 0.00 0.09 0.09 91 1018.6
20260506044332 51 161 0.0 0.0 0.00 0.16 0.09 89 1018.3
20260506043340 52 161 0.0 0.0 0.00 0.18 0.09 88 1018.1
20260506042313 52 161 0.0 0.0 0.00 0.20 0.09 87 1018.0
20260506040147 53 161 0.0 0.0 0.00 0.21 0.09 86 1017.6
20260506035136 54 161 0.0 0.0 0.00 0.21 0.09 85 1017.4
20260506034128 55 161 0.0 0.0 0.00 0.21 0.09 85 1017.2
20260506033141 55 144 0.0 0.0 0.00 0.22 0.09 84 1017.1
20260506031008 56 138 0.0 0.9 0.00 0.23 0.09 82 1016.7
20260506030021 57 176 0.0 2.6 0.00 0.23 0.09 81 1016.7
20260506024954 57 165 0.0 0.9 0.00 0.23 0.09 80 1016.6
20260506022830 59 148 0.0 5.2 0.00 0.23 0.09 79 1016.6
20260506021758 59 136 0.0 5.2 0.00 0.23 0.09 78 1016.5
20260506020736 60 142 0.0 5.2 0.00 0.23 0.09 77 1016.3
20260506015703 62 155 0.0 5.2 0.00 0.23 0.09 75 1016.2
20260506014727 62 144 0.0 5.2 0.00 0.23 0.09 75 1016.1
20260506013716 62 142 0.0 5.2 0.00 0.23 0.09 76 1016.2
20260506012642 62 167 0.0 4.3 0.00 0.23 0.09 75 1016.1
20260506011633 62 158 0.9 4.3 0.00 0.23 0.09 75 1016.2
20260506010623 63 26 0.9 3.5 0.00 0.23 0.09 74 1016.1
20260506005645 62 145 0.0 5.2 0.00 0.23 0.09 75 1016.0
20260506004700 62 141 0.9 5.2 0.00 0.23 0.09 75 1016.0
20260506003650 62 158 0.9 5.2 0.00 0.23 0.09 75 1015.9
20260506002633 63 142 0.9 4.3 0.00 0.23 0.09 73 1015.8
20260506001631 63 139 0.9 4.3 0.00 0.23 0.09 73 1015.7
20260506000558 63 120 0.0 4.3 0.00 0.23 0.09 75 1015.7
20260505235540 63 139 0.9 4.3 0.00 0.23 0.09 75 1015.7
20260505234544 62 323 0.9 5.2 0.00 0.23 0.09 75 1015.8
20260505233552 62 141 0.9 5.2 0.00 0.23 0.09 75 1015.8
20260505232546 62 139 0.9 3.5 0.00 0.23 0.09 75 1015.9
20260505231546 62 148 0.9 2.6 0.00 0.23 0.09 74 1015.8
20260505230545 63 138 0.0 2.6 0.00 0.23 0.09 73 1015.9
20260505225553 63 131 0.9 6.1 0.00 0.23 0.09 73 1015.8
20260505224529 63 186 0.9 6.1 0.00 0.23 0.09 73 1015.8
20260505223543 64 143 0.9 7.0 0.00 0.23 0.09 73 1015.8
20260505222527 64 341 0.9 7.0 0.00 0.23 0.09 73 1015.8
20260505215220 66 113 0.9 3.5 0.00 0.23 0.09 71 1015.9
20260505214245 65 120 1.7 7.8 0.00 0.23 0.09 72 1016.1
20260505213230 64 136 0.9 7.8 0.00 0.23 0.09 74 1016.1
20260505212201 63 139 0.9 6.1 0.00 0.23 0.09 74 1016.1
20260505211207 63 103 0.9 6.1 0.00 0.23 0.09 74 1016.2
20260505210229 63 112 0.9 5.2 0.00 0.23 0.09 75 1016.2
20260505205228 63 160 0.9 4.3 0.00 0.23 0.09 74 1016.2
20260505203126 62 130 1.7 6.1 0.00 0.23 0.09 75 1016.3
20260505202107 63 124 0.0 3.5 0.00 0.23 0.09 74 1016.3
20260505201112 62 150 0.0 0.9 0.00 0.23 0.09 75 1016.3
20260505195034 63 148 0.0 4.3 0.00 0.23 0.09 74 1016.4
20260505194011 64 161 0.9 5.2 0.00 0.23 0.09 74 1016.3
20260505193020 64 68 0.9 5.2 0.00 0.23 0.09 72 1016.3
20260505192012 64 139 0.0 1.7 0.00 0.23 0.09 72 1016.3
20260505191014 64 125 0.0 5.2 0.00 0.23 0.09 72 1016.4
20260505190014 64 156 0.9 5.2 0.00 0.23 0.09 73 1016.4
20260505185027 64 128 0.9 3.5 0.00 0.23 0.09 73 1016.3
20260505184009 62 73 0.9 3.5 0.00 0.23 0.09 76 1016.4
20260505183033 62 59 0.0 3.5 0.00 0.23 0.09 75 1016.4
20260505182031 62 156 0.0 0.0 0.00 0.23 0.09 75 1016.4
20260505181004 61 152 0.0 0.0 0.00 0.23 0.09 75 1016.3
20260505180021 61 157 0.0 1.7 0.00 0.23 0.09 74 1016.3
20260505174959 62 150 0.0 1.7 0.00 0.23 0.09 75 1016.1
20260505173959 61 170 0.0 0.9 0.00 0.23 0.09 77 1016.0
20260505171821 60 167 0.0 0.0 0.00 0.23 0.09 79 1016.1
20260505170828 60 145 0.0 0.9 0.00 0.23 0.09 80 1016.1
20260505165833 59 167 0.0 0.0 0.00 0.23 0.09 83 1016.1
20260505164857 58 167 0.0 1.7 0.00 0.23 0.09 84 1016.1
20260505163910 58 160 0.0 0.9 0.00 0.23 0.09 86 1016.2
20260505162853 58 160 0.0 0.0 0.00 0.23 0.09 89 1016.1
20260505152408 55 167 0.0 0.0 0.00 0.23 0.09 93 1015.6
20260505151423 54 166 0.0 0.0 0.01 0.23 0.09 93 1015.6
20260505150402 54 167 0.0 0.0 0.01 0.23 0.09 93 1015.4
20260505124807 52 165 0.0 0.0 0.00 0.23 0.08 93 1014.9